TimeEDT,TemperatureF,Dew PointF,Humidity,Sea Level PressureIn,VisibilityMPH,Wind Direction,Wind SpeedMPH,Gust SpeedMPH,PrecipitationIn,Events,Conditions,WindDirDegrees,DateUTC
12:53 AM,84.0,75.0,74,30.14,10.0,East,10.4,-,N/A,,Mostly Cloudy,100,2013-07-30 04:53:00
1:53 AM,84.0,73.9,72,30.13,10.0,ESE,6.9,-,N/A,,Mostly Cloudy,110,2013-07-30 05:53:00
2:53 AM,82.9,73.9,74,30.12,10.0,East,5.8,-,N/A,,Mostly Cloudy,100,2013-07-30 06:53:00
3:53 AM,82.9,73.9,74,30.10,10.0,East,5.8,-,N/A,,Mostly Cloudy,100,2013-07-30 07:53:00
4:22 AM,82.4,73.4,74,30.10,10.0,ESE,3.5,-,N/A,Thunderstorm,Thunderstorm,110,2013-07-30 08:22:00
4:53 AM,82.0,73.9,76,30.10,10.0,East,4.6,-,N/A,Thunderstorm,Thunderstorm,100,2013-07-30 08:53:00
5:49 AM,80.6,69.8,70,30.10,10.0,SSW,9.2,-,0.00,Rain,Light Rain,200,2013-07-30 09:49:00
5:53 AM,81.0,68.0,65,30.10,10.0,South,4.6,-,0.00,Rain,Light Rain,180,2013-07-30 09:53:00
6:53 AM,80.1,68.0,67,30.11,10.0,Calm,Calm,-,0.00,,Mostly Cloudy,0,2013-07-30 10:53:00
7:53 AM,81.0,71.1,72,30.12,10.0,Calm,Calm,-,N/A,,Mostly Cloudy,0,2013-07-30 11:53:00
8:39 AM,84.2,73.4,70,30.14,10.0,NW,3.5,-,N/A,,Mostly Cloudy,320,2013-07-30 12:39:00
8:53 AM,84.0,73.0,69,30.15,10.0,WNW,3.5,-,N/A,,Mostly Cloudy,290,2013-07-30 12:53:00
9:25 AM,87.8,73.4,62,30.15,10.0,Calm,Calm,-,N/A,,Mostly Cloudy,0,2013-07-30 13:25:00
9:53 AM,87.1,75.0,67,30.16,10.0,ESE,11.5,-,N/A,,Mostly Cloudy,110,2013-07-30 13:53:00
10:14 AM,87.8,75.2,66,30.16,10.0,SE,11.5,-,0.00,Rain,Light Rain,130,2013-07-30 14:14:00
10:38 AM,89.6,73.4,59,30.16,10.0,East,11.5,-,0.00,,Mostly Cloudy,100,2013-07-30 14:38:00
10:53 AM,88.0,73.9,63,30.17,10.0,ESE,13.8,-,0.00,,Mostly Cloudy,110,2013-07-30 14:53:00
11:53 AM,89.1,73.9,61,30.16,10.0,East,10.4,-,N/A,,Mostly Cloudy,100,2013-07-30 15:53:00
12:53 PM,90.0,73.9,59,30.16,10.0,East,12.7,-,N/A,,Mostly Cloudy,90,2013-07-30 16:53:00
2:53 PM,90.0,73.9,59,30.14,10.0,East,11.5,-,N/A,,Mostly Cloudy,90,2013-07-30 18:53:00
3:53 PM,90.0,73.9,59,30.11,10.0,East,13.8,-,N/A,,Mostly Cloudy,90,2013-07-30 19:53:00
4:53 PM,89.1,73.0,59,30.10,10.0,East,12.7,-,N/A,,Scattered Clouds,100,2013-07-30 20:53:00
5:53 PM,88.0,73.9,63,30.09,10.0,East,9.2,-,N/A,,Scattered Clouds,90,2013-07-30 21:53:00
6:53 PM,88.0,73.9,63,30.09,10.0,East,10.4,-,N/A,,Scattered Clouds,80,2013-07-30 22:53:00
7:53 PM,86.0,73.9,67,30.10,10.0,East,9.2,-,N/A,,Scattered Clouds,80,2013-07-30 23:53:00
8:53 PM,86.0,73.9,67,30.12,10.0,East,9.2,-,N/A,,Scattered Clouds,100,2013-07-31 00:53:00
9:53 PM,84.9,73.0,67,30.12,10.0,East,6.9,-,N/A,,Scattered Clouds,100,2013-07-31 01:53:00
10:53 PM,84.9,75.0,72,30.12,10.0,East,6.9,-,N/A,,Partly Cloudy,90,2013-07-31 02:53:00
11:53 PM,84.9,73.9,69,30.11,10.0,East,5.8,-,N/A,,Scattered Clouds,80,2013-07-31 03:53:00